Date String (YYYY-MM-DD hh:mm:ss) UTC,Instrument flags,absolute air pressure of the measurement (hPa),sample flow rate (lpm),inlet stack bypass flow (lpm),air temperature of the measurement (°C),ambient temperature measured by the external sensor (°C),aerosol sample conditioner tube jacket temperature (°C),OPC LED temperature (°C),internal box temperature (°C),relative humidity of the measurement (%),span deviation,mass concentration of particles derived from Lorenz-Mie calculation of OPC scattering (μg/m³),mass concentration of particles derived from Lorenz-Mie calculation of OPC scattering (μg/m³),mass concentration of particles derived from Lorenz-Mie calculation of OPC scattering (μg/m³)
DateTimeUTC,F1_M11,P_M11,Q1_M11,Q2_M11,T1_M11,T2_M11,T3_M11,T4_M11,T5_M11,U1_M11,ZSPAN_M11,X0_M11,X2_M11,X1_M11
2024-01-22 22:00:00,SystemResetWarning,0824.4,5.00,000.00,025.8,025.1,000.0,034.2,027.1,14.4,0003.2,0014.21,0008.10,0007.51
2024-01-22 22:01:00,SystemResetWarning,0824.4,5.01,000.00,025.8,025.1,000.0,034.2,027.1,14.4,0002.9,0013.96,0007.93,0007.38
2024-01-22 22:02:00,SystemResetWarning,0824.4,5.00,000.00,025.8,025.2,000.0,034.2,027.1,14.5,0002.9,0013.83,0007.83,0007.29
2024-01-22 22:03:00,SystemResetWarning,0824.4,4.99,000.00,025.8,025.2,000.0,034.2,027.1,14.6,0003.1,0013.74,0007.79,0007.26
2024-01-22 22:04:00,SystemResetWarning,0824.4,4.99,000.00,025.8,025.2,000.0,034.2,027.2,14.5,0003.3,0013.69,0007.77,0007.23
2024-01-22 22:05:00,SystemResetWarning,0824.4,5.01,000.00,025.8,025.2,000.0,034.2,027.2,14.4,0003.6,0013.55,0007.71,0007.21
2024-01-22 22:06:00,SystemResetWarning,0824.4,4.99,000.00,025.8,025.2,000.0,034.2,027.2,14.4,0003.7,0013.42,0007.69,0007.22
2024-01-22 22:07:00,SystemResetWarning,0824.4,5.01,000.00,025.8,025.2,000.0,034.2,027.1,14.4,0003.7,0013.41,0007.71,0007.22
2024-01-22 22:08:00,SystemResetWarning,0824.4,5.00,000.00,025.8,025.2,000.0,034.2,027.1,14.4,0003.7,0013.43,0007.70,0007.21
2024-01-22 22:09:00,SystemResetWarning,0824.4,5.00,000.00,025.8,025.2,000.0,034.2,027.1,14.4,0003.9,0013.11,0007.64,0007.19
2024-01-22 22:10:00,SystemResetWarning,0824.4,4.99,000.00,025.8,025.2,000.0,034.2,027.1,14.3,0003.9,0012.13,0007.57,0007.16
2024-01-22 22:11:00,SystemResetWarning,0824.4,4.99,000.00,025.8,025.2,000.0,034.2,027.2,14.3,0004.2,0012.47,0007.57,0007.14
2024-01-22 22:12:00,SystemResetWarning,0824.5,5.00,000.00,025.8,025.2,000.0,034.2,027.1,14.2,0004.2,0012.77,0007.57,0007.13
2024-01-22 22:13:00,SystemResetWarning,0824.5,5.00,000.00,025.8,025.2,000.0,034.2,027.2,14.1,0004.4,0012.69,0007.53,0007.09
2024-01-22 22:14:00,SystemResetWarning,0824.5,5.01,000.00,025.8,025.2,000.0,034.2,027.2,14.2,0004.5,0012.65,0007.50,0007.07
2024-01-22 22:15:00,SystemResetWarning,0824.5,5.00,000.00,025.8,025.2,000.0,034.2,027.2,14.1,0004.5,0013.13,0007.48,0007.06
2024-01-22 22:16:00,SystemResetWarning,0824.5,5.01,000.00,025.9,025.2,000.0,034.2,027.2,14.1,0004.5,0013.31,0007.46,0007.05
2024-01-22 22:17:00,SystemResetWarning,0824.5,5.00,000.00,025.9,025.2,000.0,034.2,027.2,14.2,0004.5,0013.31,0007.46,0007.03
2024-01-22 22:18:00,SystemResetWarning,0824.5,4.99,000.00,025.9,025.2,000.0,034.2,027.2,14.1,0004.5,0013.13,0007.40,0007.01
2024-01-22 22:19:00,SystemResetWarning,0824.6,4.99,000.00,025.9,025.2,000.0,034.2,027.2,14.1,0004.6,0012.98,0007.37,0007.00
2024-01-22 22:20:00,SystemResetWarning,0824.7,5.01,000.00,025.9,025.2,000.0,034.2,027.2,13.9,0004.6,0012.99,0007.35,0006.98
2024-01-22 22:21:00,SystemResetWarning,0824.7,5.01,000.00,025.9,025.2,000.0,034.2,027.3,13.9,0004.8,0013.21,0007.35,0006.97
2024-01-22 22:22:00,SystemResetWarning,0824.7,5.00,000.00,025.9,025.2,000.0,034.2,027.2,13.9,0004.8,0012.77,0007.33,0006.96
2024-01-22 22:23:00,SystemResetWarning,0824.7,4.99,000.00,025.9,025.2,000.0,034.2,027.2,13.9,0004.8,0012.24,0007.32,0006.94
2024-01-22 22:24:00,SystemResetWarning,0824.7,4.99,000.00,025.9,025.2,000.0,034.2,027.2,13.9,0004.7,0012.30,0007.34,0006.93
2024-01-22 22:25:00,SystemResetWarning,0824.7,4.99,000.00,025.9,025.2,000.0,034.2,027.2,13.9,0004.6,0012.38,0007.33,0006.91
2024-01-22 22:26:00,SystemResetWarning,0824.7,5.01,000.00,025.9,025.2,000.0,034.2,027.2,13.9,0004.6,0011.84,0007.27,0006.88
2024-01-22 22:27:00,SystemResetWarning,0824.7,5.01,000.00,025.9,025.2,000.0,034.2,027.2,14.0,0004.4,0011.52,0007.26,0006.87
2024-01-22 22:28:00,SystemResetWarning,0824.7,5.00,000.00,025.9,025.2,000.0,034.2,027.2,14.0,0004.5,0011.49,0007.24,0006.84
2024-01-22 22:29:00,SystemResetWarning,0824.7,4.99,000.00,025.9,025.2,000.0,034.2,027.2,13.9,0004.9,0011.44,0007.22,0006.81
2024-01-22 22:30:00,SystemResetWarning,0824.7,4.99,000.00,025.9,025.2,000.0,034.2,027.2,13.9,0004.8,0011.40,0007.17,0006.76
2024-01-22 22:31:00,SystemResetWarning,0824.7,5.01,000.00,025.9,025.2,000.0,034.3,027.3,14.0,0004.5,0011.27,0007.12,0006.70
2024-01-22 22:32:00,SystemResetWarning,0824.7,5.01,000.00,025.9,025.2,000.0,034.3,027.3,14.0,0004.4,0010.97,0007.07,0006.65
2024-01-22 22:33:00,SystemResetWarning,0824.7,4.99,000.00,025.9,025.2,000.0,034.3,027.2,14.0,0004.3,0010.89,0007.02,0006.60
2024-01-22 22:34:00,SystemResetWarning,0824.7,4.99,000.00,025.9,025.2,000.0,034.3,027.3,14.0,0004.5,0010.72,0006.92,0006.54
2024-01-22 22:35:00,SystemResetWarning,0824.7,5.01,000.00,025.9,025.2,000.0,034.3,027.3,14.0,0004.4,0010.49,0006.82,0006.47
2024-01-22 22:36:00,SystemResetWarning,0824.7,5.00,000.00,025.9,025.2,000.0,034.3,027.2,13.9,0004.3,0010.34,0006.76,0006.41
2024-01-22 22:37:00,SystemResetWarning,0824.7,5.01,000.00,025.9,025.2,000.0,034.3,027.2,13.9,0004.3,0010.39,0006.72,0006.36
2024-01-22 22:38:00,SystemResetWarning,0824.7,5.01,000.00,025.9,025.2,000.0,034.3,027.3,13.9,0004.3,0010.28,0006.63,0006.28
2024-01-22 22:39:00,SystemResetWarning,0824.7,5.00,000.00,025.9,025.2,000.0,034.3,027.3,13.9,0004.3,0010.13,0006.52,0006.20
2024-01-22 22:40:00,SystemResetWarning,0824.7,5.00,000.00,026.0,025.2,000.0,034.3,027.3,14.0,0004.0,0010.02,0006.45,0006.14
2024-01-22 22:41:00,SystemResetWarning,0824.7,5.00,000.00,026.0,025.3,000.0,034.3,027.3,14.0,0003.9,0010.02,0006.38,0006.05
2024-01-22 22:42:00,SystemResetWarning,0824.7,5.00,000.00,026.0,025.3,000.0,034.3,027.3,14.0,0004.1,0010.46,0006.33,0005.98
2024-01-22 22:43:00,SystemResetWarning,0824.7,5.00,000.00,026.0,025.3,000.0,034.3,027.3,13.9,0004.0,0010.47,0006.25,0005.90
2024-01-22 22:44:00,SystemResetWarning,0824.7,4.99,000.00,026.0,025.3,000.0,034.3,027.3,14.0,0004.0,0010.79,0006.19,0005.84
2024-01-22 22:45:00,SystemResetWarning,0824.7,4.99,000.00,026.0,025.3,000.0,034.3,027.3,14.0,0004.0,0010.76,0006.10,0005.77
2024-01-22 22:46:00,SystemResetWarning,0824.7,5.00,000.00,026.0,025.3,000.0,034.3,027.3,14.0,0004.1,0010.68,0006.02,0005.70
2024-01-22 22:47:00,SystemResetWarning,0824.7,5.00,000.00,026.0,025.3,000.0,034.3,027.3,14.0,0004.0,0010.59,0005.96,0005.63
2024-01-22 22:48:00,SystemResetWarning,0824.7,5.00,000.00,026.0,025.3,000.0,034.3,027.3,14.1,0004.3,0010.36,0005.86,0005.56
2024-01-22 22:49:00,SystemResetWarning,0824.7,5.00,000.00,026.0,025.3,000.0,034.3,027.4,14.1,0004.4,0010.26,0005.82,0005.50
2024-01-22 22:50:00,SystemResetWarning,0824.7,5.00,000.00,026.0,025.3,000.0,034.3,027.4,14.0,0004.4,0010.32,0005.79,0005.44
2024-01-22 22:51:00,SystemResetWarning,0824.7,5.00,000.00,026.0,025.3,000.0,034.3,027.4,13.9,0004.3,0010.28,0005.73,0005.37
2024-01-22 22:52:00,SystemResetWarning,0824.7,5.00,000.00,026.0,025.3,000.0,034.3,027.3,14.0,0004.1,0010.19,0005.67,0005.32
2024-01-22 22:53:00,SystemResetWarning,0824.7,5.00,000.00,026.0,025.3,000.0,034.3,027.4,14.0,0004.3,0009.72,0005.61,0005.28
2024-01-22 22:54:00,SystemResetWarning,0824.7,5.00,000.00,026.0,025.3,000.0,034.3,027.4,14.1,0004.4,0009.36,0005.56,0005.25
2024-01-22 22:55:00,SystemResetWarning,0824.7,5.00,000.00,026.0,025.3,000.0,034.3,027.4,14.1,0004.7,0009.03,0005.51,0005.21
2024-01-22 22:56:00,SystemResetWarning,0824.7,5.02,000.00,026.0,025.3,000.0,034.4,027.4,14.2,0004.7,0008.69,0005.47,0005.17
2024-01-22 22:57:00,SystemResetWarning,0824.7,5.00,000.00,026.0,025.3,000.0,034.4,027.4,14.2,0004.7,0008.67,0005.44,0005.14
2024-01-22 22:58:00,SystemResetWarning,0824.7,4.99,000.00,026.0,025.3,000.0,034.4,027.4,14.2,0004.5,0008.60,0005.38,0005.11
2024-01-22 22:59:00,SystemResetWarning,0824.7,5.00,000.00,026.0,025.3,000.0,034.4,027.4,14.1,0004.2,0008.63,0005.34,0005.07
